Regional Weather Roundup
Issued by NWS

Home | Current Version | Previous Version | Graphics & Text | Print | Product List | Glossary On
Versions: 1 2 3 4 5 6 7 8 9 10 11 12 13 14 15 16 17 18 19 20 21 22 23 24 25 26 27 28 29 30 31 32 33 34 35 36 37 38 39 40 41 42 43 44 45 46 47 48 49 50
000
ASUS43 KMPX 210101
RWRMN
WEATHER ROUNDUP FOR MINNESOTA
NATIONAL WEATHER SERVICE TWIN CITIES/CHANHASSEN MN
800 PM CDT FRI OCT 20 2017


NOTE: "FAIR" INDICATES FEW OR NO CLOUDS BELOW 12,000 FEET WITH NO
SIGNIFICANT WEATHER AND/OR OBSTRUCTIONS TO VISIBILITY. N/A MEANS
CURRENT SKY AND/OR WEATHER CONDITIONS ARE NOT AVAILABLE.

MNZ060>063-068>070-210200-
   Twin Cities Metro

CITY           SKY/WX    TMP DP  RH WIND       PRES   REMARKS
TWIN CITIES    MOCLDY    69  47  45 S13G21    29.74R
ST PAUL        CLEAR     67  46  47 SE13      29.74S
CRYSTAL        PTCLDY    69  45  41 S16       29.71R
BLAINE         MOCLDY    72  46  40 S16G28    29.72R
LAKEVILLE      CLOUDY    64  46  52 S10G16    29.74S
EDEN PRAIRIE   CLEAR     69  48  47 S17G23    29.71S
SOUTH ST PAUL  CLOUDY    69  44  40 S9G17     29.74S
LAKE ELMO      FAIR      68  45  42 S16       29.76R
$$
MNZ001>005-007-008-013>017-022>024-027-028-210200-
   Northwest Minnesota

CITY           SKY/WX    TMP DP  RH WIND       PRES   REMARKS
BEMIDJI        CLEAR     69  51  51 S15G26    29.54S
HALLOCK        PTCLDY    70  52  52 S15       29.36S
ROSEAU         CLOUDY    72  55  56 S15       29.44S
WARROAD        CLOUDY    70  55  60 SE14      29.46S
CROOKSTON      CLOUDY    72  54  53 S29       29.41S
FOSSTON        CLEAR     68  48  49 S17G25    29.49S
DETROIT LAKES  PTCLDY    70  52  52 S18G24    29.53F
MOORHEAD       MOCLDY    70  54  56 S23G30    29.45F
PARK RAPIDS    CLEAR     70  51  51 S20       29.57R
MAHNOMEN       FAIR      68  52  55 S14G22    29.49S
$$
MNZ006-009>011-018-025>026-210200-
   North Central Minnesota

CITY           SKY/WX    TMP DP  RH WIND       PRES   REMARKS
BAUDETTE       PTCLDY    69  50  50 S16       29.51R
FLAG ISLAND    MOCLDY    59  48  67 SE20      29.45S
INTL FALLS     CLOUDY    69  47  45 S10       29.57R
WASKISH        CLOUDY    70  52  52 SE12G23   29.53S
BIG FORK       PTCLDY    70  48  46 S14G26    29.60S
LONGVILLE      CLEAR     70  48  46 S15G21    29.61R
GRAND RAPIDS   PTCLDY    68  49  50 S17G23    29.65R
CRANE LAKE     PTCLDY    64  46  52 SE5       29.65S
ORR            PTCLDY    66  43  42 SE13G18   29.61S
COOK           PTCLDY    68  46  45 S10G20    29.65S
WALKER         FAIR      68  50  52 S16       29.57S
$$
MNZ012-019>021-037-210200-
   Northeast Minnesota

CITY           SKY/WX    TMP DP  RH WIND       PRES   REMARKS
DULUTH         CLOUDY    64  45  49 S12       29.72S
ELY            CLOUDY    64  45  48 S10       29.69S
HIBBING        PTCLDY    66  45  46 S10       29.67R
EVELETH        PTCLDY    64  32  30 SE7       29.70S
DULUTH HARBOR  PTCLDY    55  54  94 N8        29.71F
TWO HARBORS    CLOUDY    57  48  72 CALM      29.71F
SILVER BAY     MOCLDY    54  46  76 CALM      29.72F
GRAND MARAIS     N/A     51  48  89 NE5       29.75S
G MARAIS ARPRT PTCLDY    55  43  62 SE3       29.78S
$$
MNZ029>031-032-039>041-046>048-054>057-064-210200-
   West Central Minnesota

CITY           SKY/WX    TMP DP  RH WIND       PRES   REMARKS
FERGUS FALLS   CLEAR     68  54  60 S14       29.52S
WHEATON        PTCLDY    70  52  52 SE17      29.51F
MORRIS         CLEAR     68  54  60 S15       29.55S
ALEXANDRIA     CLEAR     69  51  52 S20G29    29.61R
ELBOW LAKE     FAIR      67  53  61 SE18      29.55R
WADENA         CLEAR     68  52  56 S14G23    29.57R
GLENWOOD       CLEAR     68  52  56 S20G28    29.62R
APPLETON       PTCLDY    72  52  49 S14G21    29.55S
BENSON         CLEAR     70  52  52 S17G25    29.60R
ORTONVILLE     PTCLDY    70  54  56 N14G21    29.53S
MADISON        PTCLDY    72  55  56 S15G25    29.55S
WILLMAR        FAIR      70  52  52 S13       29.64R
$$
MNZ033>034-036-042>043-049>051-058-059-210200-
   Central Minnesota

CITY           SKY/WX    TMP DP  RH WIND       PRES   REMARKS
ST CLOUD       CLEAR     68  49  50 S16       29.66S
SAUK CENTRE    FAIR      65  50  58 SE14      29.63R
PAYNESVILLE    CLEAR     69  50  51 S16G23    29.65R
AITKIN         CLEAR     66  46  48 S15G24    29.64R
PINE RIVER     CLEAR     66  48  52 S14G22    29.64S
BRAINERD       CLEAR     68  46  45 S17G30    29.64R
STAPLES        CLEAR     68  46  45 S16G23    29.60R
LONG PRAIRIE   FAIR      66  48  52 SE15G23   29.63R
LITTLE FALLS   CLEAR     68  36  30 S10G18    29.65R
LITCHFIELD     CLEAR     70  50  49 SE9G18    29.67R
BUFFALO        PTCLDY    69  46  42 S15G25    29.70R
MAPLE LAKE     PTCLDY    69  49  49 S8G20     29.69S
HUTCHINSON     PTCLDY    69  51  53 S12G21    29.69R
$$
MNZ037-044-045-052-053-210200-
   East Central Minnesota

CITY           SKY/WX    TMP DP  RH WIND       PRES   REMARKS
PRINCETON      CLOUDY    70  46  43 SE12G22   29.69S
MORA           PTCLDY    64  45  48 S7        29.72R
CAMBRIDGE      PTCLDY    72  50  46 SE12G20   29.71R
RUSH CITY      CLOUDY    67  43  41 S13G18    29.72R
MOOSE LAKE     PTCLDY    68  41  37 S7G17     29.68S
HINCKLEY       FAIR      68  45  42 SE8       29.71S
CLOQUET        CLOUDY    70  39  32 SE12G17   29.70F
MCGREGOR       CLOUDY    66  46  48 S12G18    29.67S
$$
MNZ071>073-080-081-089-090-097-098-210200-
   Southwest Minnesota

CITY           SKY/WX    TMP DP  RH WIND       PRES   REMARKS
MONTEVIDEO     PTCLDY    70  54  56 SW13G18   29.59R
GRANITE FALLS  CLEAR     71  57  60 SE16G25   29.62R
CANBY          PTCLDY    72  56  58 S17G30    29.57R
MARSHALL       PTCLDY    70  56  61 S23G31    29.59R
REDWOOD FALLS  CLEAR     69  52  54 S22       29.63R
OLIVIA         CLEAR     70  52  52 S18G24    29.64R
PIPESTONE      CLOUDY    68  55  64 S17       29.62S
WORTHINGTON    CLEAR     68  56  65 S18G24    29.65F
JACKSON        CLEAR     66  52  59 S16G24    29.71R
TRACY          CLEAR     69  57  65 S15G23    29.62S
SLAYTON        PTCLDY    67  56  68 S15G24    29.65R
$$
MNZ065>067-074>077-082>085-091>093-210200-
   South Central Minnesota

CITY           SKY/WX    TMP DP  RH WIND       PRES   REMARKS
MANKATO        PTCLDY    68  49  50 S14G24    29.72S
NEW ULM        CLEAR     68  48  49 S18G24    29.68S
ST JAMES       CLEAR     66  52  59 SE21G28   29.70S
FAIRMONT       CLEAR     66  51  58 S15       29.72S
GLENCOE        CLEAR     70  48  46 S13G22    29.68S
FARIBAULT      CLOUDY    66  48  52 SE17      29.76S
OWATONNA       CLOUDY    66  48  52 S13G23    29.77S
WASECA         CLOUDY    64  46  52 S20G25    29.77S
$$
MNZ078>079-086>088-094>096-210200-
   Southeast Minnesota

CITY           SKY/WX    TMP DP  RH WIND       PRES   REMARKS
ROCHESTER      PTCLDY    64  47  53 S18G28    29.82S
RED WING       MOCLDY    70  41  35 S10G17    29.77S
STANTON        MOCLDY    68  46  46 S14G26    29.74S
DODGE CENTER   CLOUDY    64  46  52 S18G25    29.80S
WINONA         CLOUDY    70  46  43 S5        29.83S
AUSTIN         CLOUDY    64  48  55 S10G16    29.81S
PRESTON        PTCLDY    63  44  50 S14G21    29.85S
$$
ABBREVIATIONS USED IN REMARKS
   TC - TEMPERATURES IN CELSIUS
  WCI - WIND CHILL INDEX
   HX - HEAT INDEX
  VSB - VISIBILITY
$$




USA.gov is the U.S. government's official web portal to all federal, state and local government web resources and services.